This is the latest recevied weather packets stored in our database for station/object KM4KBD. If no packets are shown the sender has not sent any weather packets the latest 10 day(s).
| Time | Temp. | Humidity | Pressure | Rain* | Wind** | Luminosity | Snow |
|---|---|---|---|---|---|---|---|
| 1778010753 | 21.67° C | 54% | 1015.8 hPa | 0 mm | - | 207 W/m² | - |
| 1778010450 | 21.67° C | 55% | 1016.2 hPa | 0 mm | - | 180 W/m² | - |
| 1778010146 | 21.67° C | 55% | 1016.2 hPa | 0 mm | - | 182 W/m² | - |
| 1778009842 | 22.22° C | 58% | 1016.5 hPa | 0 mm | - | 215 W/m² | - |
| 1778009540 | 22.22° C | 55% | 1016.6 hPa | 0 mm | - | 286 W/m² | - |
| 1778009238 | 22.78° C | 54% | 1016.8 hPa | 0 mm | - | 758 W/m² | - |
| 1778008936 | 22.22° C | 57% | 1016.7 hPa | 0 mm | - | 402 W/m² | - |
| 1778008634 | 21.67° C | 55% | 1016.7 hPa | 0 mm | - | 393 W/m² | - |
| 1778008332 | 21.67° C | 57% | 1016.8 hPa | 0 mm | - | 295 W/m² | - |
| 1778008028 | 21.67° C | 55% | 1016.8 hPa | 0 mm | - | 268 W/m² | - |
| 1778007727 | 22.22° C | 55% | 1016.7 hPa | 0 mm | - | 267 W/m² | - |
| 1778007425 | 21.67° C | 56% | 1017 hPa | 0 mm | - | 323 W/m² | - |
| 1778007121 | 21.67° C | 55% | 1016.9 hPa | 0 mm | - | 342 W/m² | - |
| 1778006817 | 21.67° C | 55% | 1017 hPa | 0 mm | - | 317 W/m² | - |
| 1778006515 | 21.67° C | 55% | 1017 hPa | 0 mm | - | 261 W/m² | - |
| 1778006211 | 21.67° C | 56% | 1017.1 hPa | 0 mm | - | 262 W/m² | - |
| 1778005909 | 21.67° C | 54% | 1017 hPa | 0 mm | - | 321 W/m² | - |
| 1778005605 | 21.67° C | 56% | 1017.1 hPa | 0 mm | - | 319 W/m² | - |
| 1778005302 | 21.67° C | 57% | 1017.2 hPa | 0 mm | - | 312 W/m² | - |
| 1778004998 | 21.67° C | 57% | 1017.1 hPa | 0 mm | - | 358 W/m² | - |
| 1778004696 | 21.67° C | 56% | 1017.4 hPa | 0 mm | - | 349 W/m² | - |
| 1778004392 | 21.67° C | 57% | 1017.2 hPa | 0 mm | - | 294 W/m² | - |
| 1778004090 | 21.67° C | 55% | 1017.4 hPa | 0 mm | - | 254 W/m² | - |
| 1778003785 | 21.67° C | 56% | 1017.2 hPa | 0 mm | - | 301 W/m² | - |
| 1778003482 | 21.67° C | 55% | 1017.6 hPa | 0 mm | - | 343 W/m² | - |
* Rain latest hour (hover to see other rain measurements)
** Current wind speed in m/s (hover to see current wind gust speed)